Cambridge, MN

10:31 AM CST on February 23, 2017 (GMT -0600)
Cambridge Municipal

Weather History for KCBG - February, 2013

Change the Weather History Date:

Wednesday, February 27, 2013

  Actual Average Record
Temperature  
Mean Temperature 32 °F -  
Max Temperature 37 °F 33 °F 60 °F (2016)
Min Temperature 26 °F 15 °F -18 °F (2014)
Degree Days  
Heating Degree Days 34    
Moisture  
Dew Point 25 °F    
Average Humidity 82    
Maximum Humidity 93    
Minimum Humidity 70    
Precipitation  
Precipitation 0.00 in - - ()
Sea Level Pressure  
Sea Level Pressure 29.91 in    
Wind  
Wind Speed 7 mph (North)    
Max Wind Speed 15 mph    
Max Gust Speed 21 mph    
Visibility 10 miles    
Events      
Averages and records for this station are not official NWS values.
T = Trace of Precipitation, MM = Missing Value Source: NWS Daily Summary

Daily Weather History Graph

Daily Weather History Graph

Search for Another Location

Airport or City:

Trip Planner

Search our weather history database for the weather conditions in past years. The results will help you decide how hot, cold, wet, or windy it might be!

Date:

Astronomy

Feb. 27, 2013 Rise Set
Actual Time 6:54 AM CST 5:57 PM CST
Civil Twilight 6:24 AM CST 6:27 PM CST
Nautical Twilight 5:50 AM CST 7:01 PM CST
Astronomical Twilight 5:16 AM CST 7:36 PM CST
Moon 8:29 PM CST (2/27) 7:21 AM CST (2/27)
Length of Visible Light 12h 02m
Length of Day
11h 03m
Waning Gibbous, 96% of the Moon is Illuminated
Feb 27
Waning Gibbous
Mar 4
Last Quarter
Mar 11
New
Mar 19
First Quarter
Mar 27
Full

Hourly Weather History & Observations

Time (CST) Temp. Windchill Dew Point Humidity Pressure Visibility Wind Dir Wind Speed Gust Speed Precip Events Conditions
12:15 AM 28.4 °F 21.2 °F 23.0 °F 80% 29.88 in 10.0 mi North 6.9 mph - N/A   Clear
12:35 AM 28.4 °F 22.2 °F 24.8 °F 86% 29.88 in 10.0 mi North 5.8 mph - N/A   Clear
12:56 AM 28.4 °F 20.4 °F 24.8 °F 86% 29.88 in 10.0 mi North 8.1 mph - N/A   Clear
1:15 AM 28.4 °F 21.2 °F 24.8 °F 86% 29.88 in 10.0 mi North 6.9 mph - N/A   Clear
1:36 AM 26.6 °F 19.1 °F 24.8 °F 93% 29.88 in 10.0 mi North 6.9 mph - N/A   Clear
1:56 AM 28.4 °F 21.2 °F 24.8 °F 86% 29.88 in 10.0 mi North 6.9 mph - N/A   Scattered Clouds
2:16 AM 28.4 °F 23.3 °F 24.8 °F 86% 29.88 in 10.0 mi North 4.6 mph - N/A   Overcast
2:35 AM 28.4 °F 21.2 °F 24.8 °F 86% 29.88 in 10.0 mi North 6.9 mph - N/A   Overcast
2:56 AM 28.4 °F 19.7 °F 24.8 °F 86% 29.88 in 10.0 mi North 9.2 mph - N/A   Overcast
3:15 AM 28.4 °F 23.3 °F 24.8 °F 86% 29.88 in 10.0 mi North 4.6 mph - N/A   Overcast
3:35 AM 28.4 °F 21.2 °F 24.8 °F 86% 29.87 in 10.0 mi North 6.9 mph - N/A   Overcast
3:56 AM 28.4 °F 23.3 °F 24.8 °F 86% 29.87 in 10.0 mi NNW 4.6 mph - N/A   Overcast
4:13 AM 26.6 °F 19.1 °F 24.8 °F 93% 29.87 in 10.0 mi North 6.9 mph - N/A   Overcast
4:32 AM 26.6 °F 20.0 °F 24.8 °F 93% 29.87 in 10.0 mi NNW 5.8 mph - N/A   Overcast
4:56 AM 26.6 °F 20.0 °F 24.8 °F 93% 29.87 in 10.0 mi North 5.8 mph - N/A   Overcast
5:15 AM 28.4 °F 22.2 °F 24.8 °F 86% 29.87 in 10.0 mi NNW 5.8 mph - N/A   Overcast
5:34 AM 26.6 °F 17.5 °F 24.8 °F 93% 29.87 in 10.0 mi NNW 9.2 mph - N/A   Overcast
5:56 AM 26.6 °F 17.5 °F 24.8 °F 93% 29.88 in 10.0 mi NNW 9.2 mph - N/A   Overcast
6:15 AM 28.4 °F 19.7 °F 24.8 °F 86% 29.88 in 10.0 mi North 9.2 mph - N/A   Overcast
6:55 AM 26.6 °F 19.1 °F 23.0 °F 86% 29.88 in 10.0 mi NNW 6.9 mph - N/A   Scattered Clouds
7:16 AM 26.6 °F 18.2 °F 23.0 °F 86% 29.89 in 10.0 mi NNW 8.1 mph - N/A   Scattered Clouds
7:35 AM 26.6 °F 18.2 °F 23.0 °F 86% 29.89 in 10.0 mi NNW 8.1 mph - N/A   Mostly Cloudy
7:56 AM 26.6 °F 17.5 °F 23.0 °F 86% 29.90 in 10.0 mi NNW 9.2 mph - N/A   Overcast
8:16 AM 26.6 °F 20.0 °F 23.0 °F 86% 29.92 in - NNW 5.8 mph - N/A   Unknown
8:36 AM 26.6 °F 19.1 °F 23.0 °F 86% 29.91 in 10.0 mi NNW 6.9 mph - N/A   Mostly Cloudy
9:16 AM 28.4 °F 21.2 °F 23.0 °F 80% 29.90 in 10.0 mi North 6.9 mph - N/A   Clear
9:36 AM 28.4 °F 18.5 °F 24.8 °F 86% 29.90 in 10.0 mi North 11.5 mph - N/A   Clear
9:55 AM 30.2 °F 21.3 °F 24.8 °F 80% 29.90 in 10.0 mi NNW 10.4 mph - N/A   Clear
10:16 AM 30.2 °F 20.8 °F 24.8 °F 80% 29.89 in 10.0 mi NNW 11.5 mph 18.4 mph N/A   Clear
10:36 AM 32.0 °F 24.8 °F 26.6 °F 80% 29.88 in 10.0 mi NNW 8.1 mph 17.3 mph N/A   Clear
10:56 AM 33.8 °F 23.9 °F 26.6 °F 75% 29.88 in 10.0 mi NNW 15.0 mph 19.6 mph N/A   Clear
11:15 AM 33.8 °F 25.8 °F 26.6 °F 75% 29.88 in 10.0 mi NNW 10.4 mph 16.1 mph N/A   Clear
11:36 AM 35.6 °F 27.5 °F 28.4 °F 75% 29.88 in 10.0 mi NNW 11.5 mph 18.4 mph N/A   Clear
12:16 PM 35.6 °F 27.5 °F 28.4 °F 75% 29.86 in 10.0 mi NNW 11.5 mph 16.1 mph N/A   Clear
12:35 PM 37.4 °F 30.8 °F 28.4 °F 70% 29.86 in 10.0 mi NNW 9.2 mph 17.3 mph N/A   Clear
12:55 PM 37.4 °F 31.4 °F 28.4 °F 70% 29.87 in 10.0 mi North 8.1 mph 17.3 mph N/A   Clear
1:16 PM 37.4 °F 30.8 °F 28.4 °F 70% 29.87 in 10.0 mi North 9.2 mph 20.7 mph N/A   Clear
1:36 PM 37.4 °F 29.3 °F 28.4 °F 70% 29.87 in 10.0 mi NNE 12.7 mph 18.4 mph N/A   Clear
1:56 PM 37.4 °F 30.3 °F 28.4 °F 70% 29.88 in 10.0 mi NNE 10.4 mph - N/A   Clear
2:15 PM 37.4 °F 30.8 °F 28.4 °F 70% 29.88 in 10.0 mi NNE 9.2 mph 17.3 mph N/A   Clear
2:36 PM 35.6 °F 27.1 °F 28.4 °F 75% 29.88 in 10.0 mi NE 12.7 mph 18.4 mph N/A   Clear
2:56 PM 35.6 °F 28.6 °F 28.4 °F 75% 29.89 in 10.0 mi NE 9.2 mph 18.4 mph N/A   Clear
3:15 PM 33.8 °F 26.4 °F 28.4 °F 81% 29.89 in 10.0 mi NE 9.2 mph - N/A   Clear
3:36 PM 33.8 °F 27.0 °F 26.6 °F 75% 29.90 in 10.0 mi NE 8.1 mph - N/A   Clear
3:56 PM 33.8 °F 27.0 °F 26.6 °F 75% 29.91 in 10.0 mi NE 8.1 mph - N/A   Clear
4:15 PM 33.8 °F 26.4 °F 26.6 °F 75% 29.91 in 10.0 mi NE 9.2 mph - N/A   Clear
4:35 PM 33.8 °F 28.6 °F 26.6 °F 75% 29.91 in 10.0 mi NE 5.8 mph - N/A   Clear
4:56 PM 32.0 °F 24.8 °F 26.6 °F 80% 29.92 in 10.0 mi NE 8.1 mph - N/A   Clear
5:16 PM 32.0 °F 24.8 °F 26.6 °F 80% 29.92 in 10.0 mi NNE 8.1 mph - N/A   Clear
5:36 PM 32.0 °F 26.4 °F 26.6 °F 80% 29.93 in 10.0 mi NE 5.8 mph - N/A   Clear
5:56 PM 30.2 °F 26.7 °F 26.6 °F 86% 29.94 in 10.0 mi NE 3.5 mph - N/A   Clear
6:15 PM 30.2 °F 23.4 °F 26.6 °F 86% 29.95 in 10.0 mi NE 6.9 mph - N/A   Clear
6:36 PM 30.2 °F 25.4 °F 24.8 °F 80% 29.96 in 10.0 mi NE 4.6 mph - N/A   Clear
6:55 PM 30.2 °F 26.7 °F 24.8 °F 80% 29.97 in 10.0 mi NE 3.5 mph - N/A   Clear
7:15 PM 30.2 °F 25.4 °F 24.8 °F 80% 29.98 in 10.0 mi NNE 4.6 mph - N/A   Clear
7:36 PM 28.4 °F 23.3 °F 24.8 °F 86% 29.98 in 10.0 mi NNE 4.6 mph - N/A   Clear
8:16 PM 28.4 °F - 24.8 °F 86% 29.99 in 10.0 mi Calm Calm - N/A   Clear
8:35 PM 28.4 °F 23.3 °F 24.8 °F 86% 29.99 in 10.0 mi North 4.6 mph - N/A   Clear
8:56 PM 28.4 °F 22.2 °F 24.8 °F 86% 29.99 in 10.0 mi North 5.8 mph - N/A   Clear
9:15 PM 28.4 °F 21.2 °F 24.8 °F 86% 29.99 in 10.0 mi North 6.9 mph - N/A   Clear
9:36 PM 28.4 °F 22.2 °F 24.8 °F 86% 30.00 in 10.0 mi North 5.8 mph - N/A   Clear
9:56 PM 28.4 °F 23.3 °F 23.0 °F 80% 30.00 in 10.0 mi North 4.6 mph - N/A   Scattered Clouds
10:16 PM 28.4 °F 22.2 °F 23.0 °F 80% 30.00 in 10.0 mi NNW 5.8 mph - N/A   Overcast
10:35 PM 28.4 °F 23.3 °F 23.0 °F 80% 30.01 in 10.0 mi NNW 4.6 mph - N/A   Overcast
10:56 PM 28.4 °F 22.2 °F 23.0 °F 80% 30.01 in 10.0 mi NNW 5.8 mph - N/A   Overcast
11:15 PM 28.4 °F 22.2 °F 23.0 °F 80% 30.01 in 10.0 mi NNW 5.8 mph - N/A   Overcast
11:35 PM 28.4 °F 23.3 °F 24.8 °F 86% 30.01 in 10.0 mi NNW 4.6 mph - N/A   Overcast
11:56 PM 28.4 °F 23.3 °F 24.8 °F 86% 30.02 in 10.0 mi NNW 4.6 mph - N/A   Overcast